Date String (YYYY-MM-DD hh:mm:ss) UTC,Instrument flags,Ambient pressure (hPa),Sample flow (lpm),Bypass flow (lpm),Sample temperature (°C),Ambient temperature (°C),ASC tube jacket temperature (°C),LED temperature (°C),Box temperature (°C),Sample RH (%),Span deviation,Mass concentration (μg/m³),Mass concentration (μg/m³),Mass concentration (μg/m³)
DateTimeUTC,F1_M11,P_M11,Q1_M11,Q2_M11,T1_M11,T2_M11,T3_M11,T4_M11,T5_M11,U1_M11,ZSPAN_M11,X0_M11,X2_M11,X1_M11
2022-11-07 19:00:00,,0824.2,5.01,0.00,25.8,24.7,00.0,34.5,27.7,13.0,0000.0,0013.36,0004.33,0003.05
2022-11-07 19:01:00,,0824.2,4.98,0.00,25.8,24.7,00.0,34.5,27.8,12.9,0000.0,0013.39,0004.35,0003.06
2022-11-07 19:02:00,,0824.2,5.00,0.00,25.8,24.7,00.0,34.5,27.8,12.9,0000.0,0013.28,0004.34,0003.06
2022-11-07 19:03:00,,0824.2,5.01,0.00,25.9,24.8,00.0,34.5,27.8,13.0,0000.0,0014.12,0004.35,0003.08
2022-11-07 19:04:00,,0824.2,4.99,0.00,25.9,24.8,00.0,34.5,27.8,13.0,0000.0,0015.23,0004.36,0003.07
2022-11-07 19:05:00,,0824.1,4.99,0.00,25.9,24.8,00.0,34.5,27.8,13.1,0000.0,0016.14,0004.40,0003.07
2022-11-07 19:06:00,,0824.0,5.01,0.00,25.9,24.8,00.0,34.6,27.8,13.1,0000.0,0016.25,0004.43,0003.11
2022-11-07 19:07:00,,0824.0,5.01,0.00,25.9,24.8,00.0,34.6,27.9,13.1,0000.0,0016.30,0004.46,0003.12
2022-11-07 19:08:00,,0824.1,4.99,0.00,25.9,24.8,00.0,34.6,27.8,13.0,0000.0,0015.31,0004.44,0003.12
2022-11-07 19:09:00,,0824.1,5.01,0.00,25.9,24.8,00.0,34.6,27.9,13.0,0000.0,0015.90,0004.48,0003.13
2022-11-07 19:10:00,,0824.1,5.01,0.00,26.0,24.8,00.0,34.6,27.9,13.0,0000.0,0016.10,0004.46,0003.14
2022-11-07 19:11:00,,0824.1,4.99,0.00,26.0,24.9,00.0,34.7,27.9,13.1,0000.0,0016.38,0004.52,0003.15
2022-11-07 19:12:00,,0824.0,5.01,0.00,26.0,24.9,00.0,34.7,27.9,13.2,0000.0,0016.02,0004.52,0003.16
2022-11-07 19:13:00,,0824.0,5.01,0.00,26.0,24.9,00.0,34.7,27.9,13.1,0000.0,0015.26,0004.52,0003.17
2022-11-07 19:14:00,,0824.0,4.99,0.00,26.0,25.0,00.0,34.7,28.0,13.0,0000.0,0014.31,0004.53,0003.18
2022-11-07 19:15:00,,0824.0,5.01,0.00,26.0,25.0,00.0,34.7,28.0,13.0,0000.0,0013.15,0004.54,0003.19
2022-11-07 19:16:00,,0823.9,5.01,0.00,26.1,25.0,00.0,34.7,28.0,13.0,0000.0,0011.66,0004.52,0003.22
2022-11-07 19:17:00,,0823.9,4.98,0.00,26.1,24.9,00.0,34.7,28.0,13.0,0000.0,0012.06,0004.53,0003.23
2022-11-07 19:18:00,,0823.9,5.01,0.00,26.0,24.9,00.0,34.8,28.0,13.0,0000.0,0012.25,0004.52,0003.24
2022-11-07 19:19:00,,0823.8,5.00,0.00,26.0,24.9,00.0,34.8,27.9,13.0,0000.0,0012.91,0004.54,0003.24
2022-11-07 19:20:00,,0823.8,4.99,0.00,26.1,24.9,00.0,34.8,27.9,13.0,0000.0,0012.73,0004.54,0003.25
2022-11-07 19:21:00,,0823.9,4.99,0.00,26.1,24.9,00.0,34.8,28.0,13.1,0000.0,0012.65,0004.56,0003.26
2022-11-07 19:22:00,,0824.0,5.01,0.00,26.1,24.9,00.0,34.8,28.0,13.0,0000.0,0012.61,0004.54,0003.28
2022-11-07 19:23:00,,0824.0,5.00,0.00,26.1,24.9,00.0,34.8,28.0,13.1,0000.0,0012.85,0004.50,0003.29
2022-11-07 19:24:00,,0824.0,5.00,0.00,26.1,24.9,00.0,34.8,28.0,13.0,0000.0,0013.65,0004.52,0003.29
2022-11-07 19:25:00,,0823.9,5.01,0.00,26.1,24.9,00.0,34.8,28.0,13.2,0000.0,0014.21,0004.51,0003.31
2022-11-07 19:26:00,,0823.8,5.00,0.00,26.1,25.0,00.0,34.8,28.0,13.1,0000.0,0014.23,0004.52,0003.32
2022-11-07 19:27:00,,0823.7,4.99,0.00,26.1,25.0,00.0,34.8,28.1,13.1,0000.0,0014.29,0004.49,0003.31
2022-11-07 19:28:00,,0823.8,5.02,0.00,26.2,25.0,00.0,34.8,28.1,13.1,0000.0,0014.08,0004.51,0003.31
2022-11-07 19:29:00,,0823.7,5.00,0.00,26.2,25.0,00.0,34.8,28.1,13.2,0000.0,0013.60,0004.45,0003.31
2022-11-07 19:30:00,,0823.7,4.98,0.00,26.2,25.1,00.0,34.9,28.1,13.2,0000.0,0013.23,0004.46,0003.33
2022-11-07 19:31:00,,0823.7,5.01,0.00,26.2,25.1,00.0,34.9,28.2,13.0,0000.0,0012.80,0004.48,0003.35
2022-11-07 19:32:00,,0823.6,5.00,0.00,26.2,25.1,00.0,34.9,28.2,13.1,0000.0,0012.94,0004.47,0003.36
2022-11-07 19:33:00,,0823.7,4.99,0.00,26.2,25.1,00.0,34.9,28.2,13.3,0000.0,0013.12,0004.48,0003.37
2022-11-07 19:34:00,,0823.8,5.02,0.00,26.3,25.2,00.0,34.9,28.2,13.2,0000.0,0013.64,0004.55,0003.39
2022-11-07 19:35:00,,0823.7,4.98,0.00,26.3,25.1,00.0,34.9,28.2,13.1,0000.0,0013.12,0004.57,0003.40
2022-11-07 19:36:00,,0823.7,5.01,0.00,26.3,25.2,00.0,34.9,28.2,13.1,0000.0,0012.59,0004.58,0003.41
2022-11-07 19:37:00,,0823.7,5.00,0.00,26.3,25.2,00.0,35.0,28.2,13.2,0000.0,0012.53,0004.55,0003.41
2022-11-07 19:38:00,,0823.8,4.99,0.00,26.3,25.2,00.0,35.0,28.3,13.1,0000.0,0013.70,0004.56,0003.43
2022-11-07 19:39:00,,0823.8,5.01,0.00,26.3,25.1,00.0,35.0,28.2,13.1,0000.0,0013.80,0004.55,0003.44
2022-11-07 19:40:00,,0823.7,4.99,0.00,26.3,25.2,00.0,35.0,28.2,13.2,0000.0,0013.84,0004.60,0003.46
2022-11-07 19:41:00,,0823.6,5.00,0.00,26.3,25.2,00.0,35.0,28.3,13.1,0000.0,0014.55,0004.64,0003.47
2022-11-07 19:42:00,,0823.6,5.01,0.00,26.3,25.2,00.0,35.0,28.2,13.2,0000.0,0014.58,0004.68,0003.48
2022-11-07 19:43:00,,0823.5,4.99,0.00,26.3,25.2,00.0,35.0,28.2,13.0,0000.0,0014.15,0004.66,0003.50
2022-11-07 19:44:00,,0823.6,5.00,0.00,26.3,25.2,00.0,35.0,28.2,13.0,0000.0,0015.18,0004.66,0003.51
2022-11-07 19:45:00,,0823.6,5.01,0.00,26.3,25.1,00.0,35.1,28.2,13.0,0000.0,0015.54,0004.66,0003.53
2022-11-07 19:46:00,,0823.6,4.98,0.00,26.3,25.1,00.0,35.1,28.2,13.2,0000.0,0015.24,0004.64,0003.54
2022-11-07 19:47:00,,0823.6,5.01,0.00,26.4,25.2,00.0,35.1,28.2,13.3,0000.0,0015.52,0004.70,0003.55
2022-11-07 19:48:00,,0823.7,5.00,0.00,26.4,25.2,00.0,35.1,28.2,13.1,0000.0,0015.75,0004.78,0003.56
2022-11-07 19:49:00,,0823.5,4.99,0.00,26.4,25.2,00.0,35.1,28.3,13.1,0000.0,0014.71,0004.79,0003.57
2022-11-07 19:50:00,,0823.5,5.00,0.00,26.4,25.2,00.0,35.1,28.3,13.0,0000.0,0014.46,0004.84,0003.58
2022-11-07 19:51:00,,0823.4,5.01,0.00,26.4,25.3,00.0,35.1,28.3,13.1,0000.0,0014.36,0004.83,0003.58
2022-11-07 19:52:00,,0823.4,4.99,0.00,26.4,25.3,00.0,35.1,28.3,13.1,0000.0,0013.94,0004.82,0003.58
2022-11-07 19:53:00,,0823.3,5.00,0.00,26.4,25.3,00.0,35.1,28.4,13.0,0000.0,0014.25,0004.80,0003.59
2022-11-07 19:54:00,,0823.4,5.01,0.00,26.5,25.3,00.0,35.1,28.4,13.1,0000.0,0014.15,0004.76,0003.59
2022-11-07 19:55:00,,0823.4,4.98,0.00,26.5,25.4,00.0,35.2,28.4,13.1,0000.0,0013.49,0004.79,0003.58
2022-11-07 19:56:00,,0823.3,5.02,0.00,26.5,25.4,00.0,35.2,28.5,13.1,0000.0,0012.71,0004.78,0003.59
2022-11-07 19:57:00,,0823.3,4.99,0.00,26.5,25.4,00.0,35.2,28.4,13.2,0000.0,0012.74,0004.80,0003.59
2022-11-07 19:58:00,,0823.3,4.99,0.00,26.5,25.4,00.0,35.2,28.4,13.2,0000.0,0013.08,0004.77,0003.60
2022-11-07 19:59:00,,0823.4,5.02,0.00,26.5,25.4,00.0,35.2,28.4,13.1,0000.0,0013.40,0004.73,0003.61
